CW2265 Weather Reports


Display with metric or nautical units.
time (UTC)temp
F
wind
direction
speed
MPH
gust
MPH
rain 1hr
in
rain 24hr
in
rain mn
in
humidity
%
barometer
mb
20190222225005 38 13 0.0 0.0 0.00 0.00 0.00 61 1029.9
20190222224505 38 13 0.0 0.0 0.00 0.00 0.00 61 1029.9
20190222223504 38 13 0.0 1.0 0.00 0.00 0.00 61 1030.0
20190222223005 38 13 0.0 2.0 0.00 0.00 0.00 61 1029.8
20190222222006 38 13 1.0 2.0 0.00 0.00 0.00 60 1029.8
20190222221505 38 13 0.0 2.0 0.00 0.00 0.00 60 1029.8
20190222221005 39 13 1.0 2.0 0.00 0.00 0.00 60 1029.8
20190222220005 39 13 2.0 3.0 0.00 0.00 0.00 58 1029.7
20190222215505 39 13 2.0 3.0 0.00 0.00 0.00 58 1029.7
20190222214505 40 12 1.0 3.0 0.00 0.00 0.00 56 1029.7
20190222213504 40 11 2.0 3.0 0.00 0.00 0.00 57 1030.0
20190222213006 40 11 0.0 2.0 0.00 0.00 0.00 56 1030.0
20190222212504 41 11 1.0 2.0 0.00 0.00 0.00 56 1030.0
20190222212009 40 11 0.0 2.0 0.00 0.00 0.00 58 1030.0
20190222211504 40 11 1.0 2.0 0.00 0.00 0.00 57 1030.0
20190222210504 40 11 2.0 3.0 0.00 0.00 0.00 57 1029.8
20190222210005 40 11 1.0 3.0 0.00 0.00 0.00 56 1029.9
20190222205504 40 11 1.0 2.0 0.00 0.00 0.00 56 1029.9
20190222205005 40 11 1.0 3.0 0.00 0.00 0.00 58 1029.9
20190222204504 40 11 1.0 3.0 0.00 0.00 0.00 57 1030.2
20190222204005 39 11 1.0 3.0 0.00 0.00 0.00 57 1030.2
20190222203504 39 11 1.0 3.0 0.00 0.00 0.00 58 1030.2
20190222203006 39 11 3.0 5.0 0.00 0.00 0.00 57 1030.2
20190222202504 39 11 3.0 7.0 0.00 0.00 0.00 58 1030.2
20190222201505 39 5 2.0 5.0 0.00 0.00 0.00 59 1030.3
20190222201005 38 5 2.0 3.0 0.00 0.00 0.00 60 1030.2
20190222200505 38 5 1.0 3.0 0.00 0.00 0.00 60 1030.2
20190222200005 38 5 2.0 3.0 0.00 0.00 0.00 60 1030.2
20190222195504 38 5 3.0 6.0 0.00 0.00 0.00 60 1030.2
20190222194504 37 5 2.0 5.0 0.00 0.00 0.00 59 1030.2
20190222194005 38 5 4.0 7.0 0.00 0.00 0.00 59 1030.2
20190222193504 38 2 3.0 7.0 0.00 0.00 0.00 60 1030.3
20190222193009 38 350 3.0 6.0 0.00 0.00 0.00 59 1030.2
20190222192505 38 348 3.0 6.0 0.00 0.00 0.00 59 1030.2
20190222191505 38 347 3.0 7.0 0.00 0.00 0.00 61 1030.5
20190222191005 38 347 3.0 7.0 0.00 0.00 0.00 60 1030.5
20190222190504 38 344 5.0 9.0 0.00 0.00 0.00 61 1030.3
20190222190006 38 18 3.0 6.0 0.00 0.00 0.00 61 1030.2
20190222185504 37 21 5.0 7.0 0.00 0.00 0.00 61 1030.2
20190222185006 38 22 2.0 7.0 0.00 0.00 0.00 60 1030.2
20190222184504 38 21 5.0 7.0 0.00 0.00 0.00 60 1030.2
20190222183504 39 6 5.0 7.0 0.00 0.00 0.00 58 1030.2
20190222183006 39 336 5.0 7.0 0.00 0.00 0.00 60 1030.1
20190222182504 39 336 5.0 7.0 0.00 0.00 0.00 60 1030.1
20190222181505 40 0 4.0 7.0 0.00 0.00 0.00 59 1029.9
20190222181006 39 333 5.0 7.0 0.00 0.00 0.00 60 1029.9
20190222180006 39 331 3.0 7.0 0.00 0.00 0.00 58 1030.2
20190222174505 39 329 3.0 6.0 0.00 0.00 0.00 58 1030.2
20190222174006 39 329 1.0 3.0 0.00 0.00 0.00 58 1030.2
20190222173504 40 329 4.0 7.0 0.00 0.00 0.00 57 1030.2
20190222173008 40 334 3.0 6.0 0.00 0.00 0.00 60 1030.2
20190222172505 39 335 2.0 5.0 0.00 0.00 0.00 59 1030.2
20190222170505 41 351 2.0 7.0 0.00 0.00 0.00 59 1030.2
20190222170006 41 19 3.0 7.0 0.00 0.00 0.00 59 1030.2
20190222165504 41 334 4.0 7.0 0.00 0.00 0.00 60 1030.2
20190222165006 40 337 2.0 7.0 0.00 0.00 0.00 62 1030.3
20190222163504 40 327 3.0 6.0 0.00 0.00 0.00 60 1030.2
20190222163006 40 325 5.0 7.0 0.00 0.00 0.00 61 1030.2
20190222162505 40 324 3.0 6.0 0.00 0.00 0.00 61 1030.2
20190222162007 40 324 3.0 7.0 0.00 0.00 0.00 62 1030.2
20190222161509 40 325 3.0 7.0 0.00 0.00 0.00 62 1030.2
20190222160514 40 325 3.0 6.0 0.00 0.00 0.00 62 1030.2
20190222160008 39 328 3.0 7.0 0.00 0.00 0.00 62 1030.2
20190222155509 39 337 2.0 6.0 0.00 0.00 0.00 64 1030.2
20190222155007 39 336 3.0 6.0 0.00 0.00 0.00 63 1030.2
20190222154505 39 336 3.0 6.0 0.00 0.00 0.00 63 1030.2
20190222154007 39 336 2.0 6.0 0.00 0.00 0.00 62 1030.1
20190222153007 39 335 6.0 8.0 0.00 0.00 0.00 61 1029.7
20190222152505 39 330 4.0 7.0 0.00 0.00 0.00 62 1029.7
20190222152005 39 330 3.0 6.0 0.00 0.00 0.00 61 1029.7
20190222151504 39 332 3.0 5.0 0.00 0.00 0.00 63 1029.6
20190222150505 38 332 4.0 6.0 0.00 0.00 0.00 64 1029.6
20190222145504 38 311 5.0 7.0 0.00 0.00 0.00 64 1029.6
20190222144505 38 323 4.0 6.0 0.00 0.00 0.00 64 1029.7
20190222144006 37 319 3.0 6.0 0.00 0.00 0.00 66 1029.7
20190222143505 37 315 3.0 6.0 0.00 0.00 0.00 67 1029.7
20190222143006 36 315 3.0 7.0 0.00 0.00 0.00 69 1029.7
20190222142505 36 313 4.0 7.0 0.00 0.00 0.00 69 1029.7
20190222142005 35 300 3.0 7.0 0.00 0.00 0.00 71 1029.7
20190222141505 35 299 5.0 7.0 0.00 0.00 0.00 71 1029.6
20190222141006 35 304 3.0 7.0 0.00 0.00 0.00 72 1029.6
20190222140504 35 311 3.0 8.0 0.00 0.00 0.00 73 1029.7
20190222140005 34 311 4.0 8.0 0.00 0.00 0.00 73 1029.7
20190222135504 34 305 3.0 9.0 0.00 0.00 0.00 74 1029.7
20190222135005 34 319 3.0 6.0 0.00 0.00 0.00 75 1029.7
20190222134505 34 261 3.0 6.0 0.00 0.00 0.00 75 1029.3
20190222134005 33 261 3.0 5.0 0.00 0.00 0.00 76 1029.3
20190222133504 33 261 5.0 6.0 0.00 0.00 0.00 76 1029.3
20190222132504 32 261 3.0 5.0 0.00 0.00 0.00 78 1029.3
20190222131504 31 261 3.0 5.0 0.00 0.00 0.00 80 1029.1
20190222131006 30 261 1.0 3.0 0.00 0.00 0.00 81 1028.9
20190222130506 29 261 0.0 1.0 0.00 0.00 0.00 82 1028.6
20190222125005 29 261 0.0 2.0 0.00 0.00 0.00 82 1028.6
20190222124505 29 261 0.0 2.0 0.00 0.00 0.00 82 1028.6
20190222124005 28 261 1.0 3.0 0.00 0.00 0.00 82 1028.6
20190222123006 28 261 1.0 3.0 0.00 0.00 0.00 82 1028.6
20190222122505 28 261 1.0 5.0 0.00 0.00 0.00 82 1028.6
20190222122007 28 261 2.0 3.0 0.00 0.00 0.00 82 1028.2
20190222121507 28 261 1.0 2.0 0.00 0.00 0.00 82 1028.2
20190222121006 28 261 1.0 5.0 0.00 0.00 0.00 82 1028.2
20190222115505 28 261 1.0 3.0 0.00 0.00 0.00 82 1027.8
20190222115005 28 261 3.0 5.0 0.00 0.00 0.00 82 1027.8
20190222114504 28 261 2.0 6.0 0.00 0.00 0.00 82 1027.8
20190222114005 28 261 3.0 5.0 0.00 0.00 0.00 82 1027.8
20190222113505 28 261 1.0 3.0 0.00 0.00 0.00 82 1027.8
20190222113006 28 261 2.0 5.0 0.00 0.00 0.00 82 1027.8
20190222111505 28 261 2.0 3.0 0.00 0.00 0.00 82 1027.6
20190222111006 28 261 2.0 5.0 0.00 0.00 0.00 82 1027.6
20190222110504 28 261 3.0 7.0 0.00 0.00 0.00 83 1027.6
20190222110007 28 261 4.0 7.0 0.00 0.00 0.00 83 1027.5
20190222105504 28 259 2.0 5.0 0.00 0.00 0.00 83 1027.5
20190222103505 28 259 1.0 3.0 0.00 0.00 0.00 82 1027.1
20190222102506 28 259 2.0 3.0 0.00 0.00 0.00 83 1027.0
20190222102005 28 259 2.0 3.0 0.00 0.00 0.00 83 1027.0
20190222101005 28 259 2.0 3.0 0.00 0.00 0.00 83 1026.9
20190222100504 28 259 2.0 3.0 0.00 0.00 0.00 83 1026.7
20190222100006 28 259 2.0 3.0 0.00 0.00 0.00 83 1026.5
20190222095006 28 259 2.0 5.0 0.00 0.00 0.00 82 1026.5
20190222094504 28 259 2.0 3.0 0.00 0.00 0.00 82 1026.2
20190222093505 28 259 2.0 3.0 0.00 0.00 0.00 82 1026.2
20190222092504 28 259 3.0 5.0 0.00 0.00 0.00 82 1026.0
20190222092005 28 259 2.0 5.0 0.00 0.00 0.00 82 1026.0
20190222091005 29 259 2.0 3.0 0.00 0.00 0.00 81 1025.9
20190222090505 29 259 2.0 5.0 0.00 0.00 0.00 81 1025.9
20190222090006 29 259 2.0 3.0 0.00 0.00 0.00 81 1025.9
20190222085505 29 259 2.0 5.0 0.00 0.00 0.00 82 1025.9
20190222084504 29 259 3.0 5.0 0.00 0.00 0.00 81 1025.9
20190222083504 29 259 2.0 5.0 0.00 0.00 0.00 82 1025.6
20190222083006 29 259 2.0 3.0 0.00 0.00 0.00 81 1025.5
20190222082006 29 259 2.0 3.0 0.00 0.00 0.00 81 1025.5
20190222081505 29 259 2.0 3.0 0.00 0.00 0.00 81 1025.2
20190222080505 29 259 2.0 5.0 0.00 0.00 0.00 81 1025.2
20190222075006 29 259 2.0 3.0 0.00 0.00 0.00 81 1025.0
20190222074505 29 259 2.0 3.0 0.00 0.00 0.00 81 1024.9
20190222073504 29 259 1.0 3.0 0.00 0.00 0.00 80 1024.9
20190222073005 29 259 2.0 3.0 0.00 0.00 0.00 80 1024.9
20190222072504 29 259 1.0 3.0 0.00 0.00 0.00 80 1024.9
20190222071505 29 259 2.0 3.0 0.00 0.00 0.00 80 1024.8
20190222070505 30 259 1.0 3.0 0.00 0.00 0.00 79 1024.7
20190222070006 30 259 2.0 3.0 0.00 0.00 0.00 79 1024.4
20190222065005 30 259 1.0 3.0 0.00 0.00 0.00 79 1024.4
20190222064504 30 259 1.0 3.0 0.00 0.00 0.00 79 1024.4
20190222064005 30 259 2.0 3.0 0.00 0.00 0.00 79 1024.4
20190222063006 30 259 2.0 3.0 0.00 0.00 0.00 78 1024.4
20190222062504 30 259 3.0 3.0 0.00 0.00 0.00 78 1024.4
20190222061505 30 259 2.0 5.0 0.00 0.00 0.00 78 1024.0
20190222060005 31 259 2.0 3.0 0.00 0.00 0.00 78 1024.0
20190222055504 31 259 2.0 5.0 0.00 0.00 0.00 78 1024.0
20190222055005 30 259 3.0 5.0 0.00 0.00 0.00 78 1024.0
20190222054505 30 259 2.0 3.0 0.00 0.00 0.00 78 1024.0
20190222054006 30 259 2.0 3.0 0.00 0.00 0.00 78 1023.9
20190222052504 30 259 2.0 3.0 0.00 0.00 0.00 78 1023.5
20190222051506 31 259 1.0 3.0 0.00 0.00 0.00 77 1023.5
20190222051006 31 259 1.0 3.0 0.00 0.00 0.00 77 1023.5
20190222050504 31 259 2.0 3.0 0.00 0.00 0.00 77 1023.8
20190222045504 31 259 2.0 2.0 0.00 0.00 0.00 77 1023.6
20190222044005 31 259 2.0 5.0 0.00 0.00 0.00 76 1023.5
20190222043507 31 259 2.0 3.0 0.00 0.00 0.00 76 1023.5
20190222042504 31 259 1.0 3.0 0.00 0.01 0.00 76 1023.4
20190222042006 32 259 1.0 3.0 0.00 0.01 0.00 75 1023.4
20190222041505 32 259 1.0 3.0 0.00 0.01 0.00 75 1023.3
20190222040505 32 259 2.0 5.0 0.00 0.01 0.00 75 1023.3
20190222040005 32 259 2.0 3.0 0.00 0.01 0.00 75 1023.0
20190222034504 32 259 1.0 3.0 0.00 0.01 0.00 75 1022.4
20190222034005 32 259 2.0 3.0 0.00 0.01 0.00 75 1022.4
20190222033504 33 259 2.0 7.0 0.00 0.01 0.00 74 1022.4
20190222033006 33 259 3.0 6.0 0.00 0.02 0.00 74 1022.4
20190222032504 33 259 1.0 3.0 0.00 0.02 0.00 74 1022.4
20190222025005 33 262 2.0 3.0 0.00 0.05 0.00 74 1022.1
20190222024504 33 262 2.0 5.0 0.00 0.06 0.00 74 1022.1
20190222024005 33 262 2.0 6.0 0.00 0.06 0.00 74 1022.2
20190222023505 33 278 1.0 3.0 0.00 0.06 0.00 74 1022.2
20190222023006 33 278 1.0 3.0 0.00 0.06 0.00 73 1021.5
20190222022505 33 278 2.0 3.0 0.00 0.06 0.00 73 1021.5
20190222022005 33 278 2.0 3.0 0.00 0.06 0.00 72 1021.5
20190222021505 34 278 1.0 2.0 0.00 0.06 0.00 72 1021.5
20190222021005 34 278 1.0 3.0 0.00 0.06 0.00 72 1021.5
20190222020504 34 278 2.0 5.0 0.00 0.06 0.00 71 1021.5
20190222015505 34 278 3.0 6.0 0.00 0.06 0.00 71 1021.5
20190222014504 34 274 2.0 5.0 0.00 0.06 0.00 71 1021.2
20190222014006 34 274 3.0 5.0 0.00 0.06 0.00 70 1021.2
20190222013505 35 274 3.0 5.0 0.00 0.07 0.00 70 1021.2
20190222012505 35 274 3.0 6.0 0.00 0.08 0.00 70 1021.2
20190222012006 35 274 2.0 3.0 0.00 0.08 0.00 70 1021.2
20190222011506 35 274 3.0 5.0 0.00 0.08 0.00 70 1021.2
20190222011006 35 274 2.0 3.0 0.00 0.08 0.00 70 1020.7
20190222010005 35 285 3.0 6.0 0.00 0.08 0.00 70 1020.7
20190222005505 35 285 3.0 5.0 0.00 0.08 0.00 70 1020.7
20190222004505 35 285 3.0 8.0 0.00 0.08 0.00 69 1020.7
20190222004005 35 274 4.0 8.0 0.00 0.08 0.00 69 1020.7
20190222003505 35 282 7.0 14.0 0.00 0.08 0.00 70 1020.7
20190222002504 35 293 3.0 6.0 0.00 0.08 0.00 76 1020.7
20190222001010 36 252 2.0 5.0 0.00 0.08 0.00 76 1020.3
20190222000504 36 252 3.0 5.0 0.00 0.08 0.00 75 1020.3
20190222000006 36 252 2.0 3.0 0.00 0.08 0.00 75 1020.2
20190221235504 36 252 2.0 3.0 0.00 0.08 0.00 74 1020.2
20190221235006 36 252 2.0 6.0 0.00 0.08 0.00 74 1020.2
20190221231504 37 248 5.0 9.0 0.00 0.08 0.00 71 1019.1
20190221231005 37 246 5.0 13.0 0.00 0.08 0.00 71 1019.1
20190221230504 38 240 5.0 12.0 0.00 0.08 0.00 71 1019.1
20190221230006 38 248 4.0 10.0 0.00 0.08 0.00 70 1019.1
20190221225507 38 246 6.0 13.0 0.00 0.08 0.00 70 1019.0